Location: Clairmont
(55.2667°N, 118.8000°W)
Time: 00:33:25
(UTC+00:00)

Envisat - Pass Details

Date: 30 October 2020
Orbit: 764 x 766 km, 98.1° (Epoch: 04 December)

Event Time Altitude Azimuth Distance (km) Brightness Sun altitude
Rises 01:24:34 0° 183° (S) 3,224 6.4 -9.4°
Reaches altitude 10° 01:26:58 10° 190° (S) 2,302 5.8 -9.7°
Maximum altitude 01:31:49 44° 262° (W) 1,054 4.4 -10.4°
Drops below altitude 10° 01:36:42 10° 335° (NNW) 2,318 5.7 -11.1°
Sets 01:39:08 0° 342° (NNW) 3,249 6.4 -11.4°
